Hourly Weather Orange

Today, 2 December, Wednesday

Time Temperature Precipitation Wind Pressure Humidity
00:00 +3°C° 0 mm 6 mps 756 mmHg 82%
01:00 +3°C° 0 mm 6 mps 755 mmHg 82%
02:00 +2°C° 0 mm 5 mps 755 mmHg 82%
03:00 +2°C° 0 mm 5 mps 754 mmHg 82%
04:00 +2°C° 0 mm 5 mps 754 mmHg 81%
05:00 +2°C° 0 mm 5 mps 754 mmHg 80%
06:00 +2°C° 0 mm 6 mps 754 mmHg 81%
07:00 +3°C° 0 mm 6 mps 754 mmHg 77%
08:00 +3°C° 0 mm 7 mps 754 mmHg 72%
09:00 +4°C° 0 mm 7 mps 754 mmHg 68%
10:00 +5°C° 0 mm 8 mps 754 mmHg 64%
11:00 +5°C° 0 mm 8 mps 754 mmHg 60%
12:00 +6°C° 0 mm 8 mps 754 mmHg 57%
13:00 +6°C° 0 mm 8 mps 754 mmHg 58%
14:00 +5°C° 0 mm 8 mps 754 mmHg 59%
15:00 +5°C° 0 mm 8 mps 754 mmHg 60%
16:00 +4°C° 0 mm 7 mps 754 mmHg 64%
17:00 +3°C° 0 mm 7 mps 755 mmHg 68%
18:00 +3°C° 0 mm 6 mps 755 mmHg 72%
19:00 +2°C° 0 mm 6 mps 755 mmHg 74%
20:00 +2°C° 0 mm 5 mps 755 mmHg 77%
21:00 +2°C° 0 mm 5 mps 756 mmHg 79%
22:00 +1°C° 0 mm 5 mps 756 mmHg 81%
23:00 +1°C° 0 mm 5 mps 755 mmHg 83%

Tomorrow, 3 December, Thursday

Time Temperature Precipitation Wind Pressure Humidity
00:00 +1°C° 0 mm 5 mps 755 mmHg 85%
01:00 +1°C° 0 mm 4 mps 755 mmHg 85%
02:00 +1°C° 0 mm 4 mps 755 mmHg 86%
03:00 +2°C° 0 mm 3 mps 755 mmHg 86%
04:00 +2°C° 0 mm 3 mps 755 mmHg 86%
05:00 +1°C° 0 mm 3 mps 754 mmHg 86%
06:00 +1°C° 0 mm 3 mps 754 mmHg 85%
07:00 +2°C° 0 mm 3 mps 754 mmHg 80%
08:00 +3°C° 0 mm 3 mps 753 mmHg 74%
09:00 +4°C° 0 mm 3 mps 753 mmHg 69%
10:00 +6°C° 0 mm 2 mps 753 mmHg 63%
11:00 +8°C° 0 mm 2 mps 752 mmHg 58%
12:00 +10°C° 0 mm 1 mps 751 mmHg 53%
13:00 +10°C° 0 mm 1 mps 751 mmHg 55%
14:00 +9°C° 0 mm 1 mps 750 mmHg 58%
15:00 +9°C° 0 mm 1 mps 749 mmHg 61%
16:00 +7°C° 0 mm 2 mps 749 mmHg 64%
17:00 +6°C° 0 mm 2 mps 748 mmHg 67%
18:00 +5°C° 0 mm 2 mps 748 mmHg 71%
19:00 +5°C° 0.1 mm 3 mps 748 mmHg 68%
20:00 +7°C° 0.1 mm 3 mps 747 mmHg 65%
21:00 +6°C° 0.1 mm 4 mps 747 mmHg 63%
22:00 +6°C° 0.1 mm 4 mps 746 mmHg 65%
23:00 +6°C° 0.1 mm 5 mps 745 mmHg 66%

Day after tomorrow, 4 December, Friday

Time Temperature Precipitation Wind Pressure Humidity
00:00 +5°C° 0.1 mm 6 mps 744 mmHg 68%
01:00 +7°C° 0.2 mm 6 mps 742 mmHg 71%
02:00 +6°C° 0.2 mm 7 mps 741 mmHg 75%
03:00 +8°C° 0.2 mm 7 mps 740 mmHg 78%
04:00 +7°C° 0.4 mm 6 mps 740 mmHg 80%
05:00 +7°C° 0.4 mm 5 mps 740 mmHg 83%
06:00 +7°C° 0.4 mm 4 mps 739 mmHg 85%
07:00 +8°C° 0.1 mm 3 mps 739 mmHg 84%
08:00 +8°C° 0.1 mm 2 mps 739 mmHg 82%
09:00 +9°C° 0.1 mm 2 mps 739 mmHg 81%
10:00 +9°C° 0.1 mm 2 mps 739 mmHg 78%
11:00 +9°C° 0.1 mm 3 mps 739 mmHg 74%
12:00 +10°C° 0.1 mm 3 mps 739 mmHg 71%
13:00 +9°C° 0.2 mm 3 mps 739 mmHg 74%
14:00 +8°C° 0.2 mm 2 mps 739 mmHg 77%
15:00 +7°C° 0.2 mm 2 mps 739 mmHg 79%
16:00 +7°C° 0.5 mm 2 mps 739 mmHg 83%
17:00 +8°C° 0.5 mm 1 mps 739 mmHg 86%
18:00 +7°C° 0.5 mm 1 mps 739 mmHg 89%
19:00 +7°C° 0.5 mm 1 mps 739 mmHg 90%
20:00 +7°C° 0.5 mm 1 mps 739 mmHg 91%
21:00 +7°C° 0.5 mm 1 mps 740 mmHg 91%
22:00 +6°C° 0.1 mm 1 mps 740 mmHg 91%
23:00 +6°C° 0.1 mm 1 mps 740 mmHg 91%

5 December, Saturday

Time Temperature Precipitation Wind Pressure Humidity
00:00 +5°C° 0.1 mm 0 mps 740 mmHg 91%
01:00 +6°C° 0.4 mm 1 mps 741 mmHg 91%
02:00 +6°C° 0.4 mm 1 mps 741 mmHg 92%
03:00 +6°C° 0.4 mm 1 mps 741 mmHg 92%
04:00 +6°C° 0 mm 1 mps 742 mmHg 91%
05:00 +6°C° 0 mm 1 mps 742 mmHg 90%
06:00 +5°C° 0 mm 1 mps 742 mmHg 90%
07:00 +6°C° 0 mm 1 mps 742 mmHg 87%
08:00 +6°C° 0 mm 1 mps 742 mmHg 84%
09:00 +7°C° 0 mm 1 mps 742 mmHg 81%
10:00 +7°C° 0 mm 1 mps 742 mmHg 76%
11:00 +8°C° 0 mm 1 mps 742 mmHg 71%
12:00 +9°C° 0 mm 1 mps 742 mmHg 66%
13:00 +9°C° 0 mm 1 mps 743 mmHg 66%
14:00 +9°C° 0 mm 1 mps 743 mmHg 66%
15:00 +9°C° 0 mm 1 mps 743 mmHg 66%
16:00 +8°C° 0 mm 1 mps 743 mmHg 70%
17:00 +6°C° 0 mm 1 mps 744 mmHg 75%
18:00 +4°C° 0 mm 0 mps 744 mmHg 79%
19:00 +5°C° 0 mm 1 mps 744 mmHg 80%
20:00 +4°C° 0 mm 1 mps 745 mmHg 81%
21:00 +4°C° 0 mm 1 mps 745 mmHg 82%
22:00 +4°C° 0 mm 1 mps 745 mmHg 82%
23:00 +4°C° 0 mm 1 mps 745 mmHg 83%

6 December, Sunday

Time Temperature Precipitation Wind Pressure Humidity
00:00 +4°C° 0 mm 1 mps 745 mmHg 83%
01:00 +4°C° 0 mm 1 mps 745 mmHg 84%
02:00 +3°C° 0 mm 2 mps 745 mmHg 84%
03:00 +3°C° 0 mm 2 mps 745 mmHg 84%
04:00 +3°C° 0.1 mm 2 mps 745 mmHg 86%
05:00 +5°C° 0.1 mm 1 mps 745 mmHg 87%
06:00 +5°C° 0.1 mm 1 mps 745 mmHg 89%
07:00 +5°C° 0 mm 1 mps 745 mmHg 88%
08:00 +5°C° 0 mm 2 mps 745 mmHg 86%
09:00 +5°C° 0 mm 2 mps 745 mmHg 85%
10:00 +6°C° 0.1 mm 2 mps 745 mmHg 85%
11:00 +6°C° 0.1 mm 2 mps 745 mmHg 84%
12:00 +7°C° 0.1 mm 2 mps 745 mmHg 84%
13:00 +7°C° 0.1 mm 3 mps 745 mmHg 82%
14:00 +8°C° 0.1 mm 3 mps 745 mmHg 80%
15:00 +8°C° 0.1 mm 3 mps 745 mmHg 79%
16:00 +7°C° 0.4 mm 3 mps 745 mmHg 81%
17:00 +7°C° 0.4 mm 3 mps 745 mmHg 83%
18:00 +6°C° 0.4 mm 2 mps 746 mmHg 86%
19:00 +5°C° 0.1 mm 3 mps 746 mmHg 84%
20:00 +5°C° 0.1 mm 4 mps 746 mmHg 83%
21:00 +4°C° 0.1 mm 4 mps 747 mmHg 81%
22:00 +4°C° 0.1 mm 3 mps 747 mmHg 82%
23:00 +4°C° 0.1 mm 2 mps 748 mmHg 82%

7 December, Monday

Time Temperature Precipitation Wind Pressure Humidity
00:00 +5°C° 0.1 mm 1 mps 748 mmHg 82%
01:00 +4°C° 0 mm 1 mps 749 mmHg 83%
02:00 +4°C° 0 mm 1 mps 749 mmHg 84%
03:00 +3°C° 0 mm 0 mps 750 mmHg 84%
04:00 +3°C° 0 mm 1 mps 750 mmHg 85%
05:00 +3°C° 0 mm 1 mps 750 mmHg 85%
06:00 +2°C° 0 mm 1 mps 751 mmHg 86%
07:00 +3°C° 0 mm 1 mps 751 mmHg 82%
08:00 +4°C° 0 mm 1 mps 751 mmHg 79%
09:00 +4°C° 0 mm 0 mps 752 mmHg 76%
10:00 +6°C° 0 mm 1 mps 752 mmHg 72%
11:00 +7°C° 0 mm 1 mps 752 mmHg 68%
12:00 +8°C° 0 mm 1 mps 752 mmHg 63%
13:00 +8°C° 0 mm 1 mps 752 mmHg 67%
14:00 +6°C° 0 mm 0 mps 752 mmHg 71%
15:00 +6°C° 0 mm 0 mps 752 mmHg 74%
16:00 +5°C° 0 mm 0 mps 753 mmHg 77%
17:00 +5°C° 0 mm 1 mps 753 mmHg 80%
18:00 +4°C° 0 mm 1 mps 753 mmHg 83%
19:00 +4°C° 0 mm 1 mps 754 mmHg 84%
20:00 +4°C° 0 mm 1 mps 754 mmHg 85%
21:00 +3°C° 0 mm 1 mps 754 mmHg 85%
22:00 +3°C° 0 mm 1 mps 754 mmHg 85%
23:00 +3°C° 0 mm 1 mps 754 mmHg 85%
Show more